This is the latest recevied weather packets stored in our database for station/object N1YZ. If no packets are shown the sender has not sent any weather packets the latest 10 day(s).
| Time | Temp. | Humidity | Pressure | Rain* | Wind** | Luminosity | Snow |
|---|---|---|---|---|---|---|---|
| 1777814059 | 10.56° C | 85% | 1041.3 hPa | 0 mm | - | 24 W/m² | - |
| 1777813755 | 10.56° C | 85% | 1041.3 hPa | 0 mm | - | 38 W/m² | - |
| 1777813453 | 10.56° C | 86% | 1041.4 hPa | 0 mm | - | 20 W/m² | - |
| 1777813150 | 10° C | 88% | 1041.3 hPa | 0 mm | - | 21 W/m² | - |
| 1777812848 | 9.44° C | 90% | 1041 hPa | 0 mm | - | 18 W/m² | - |
| 1777812544 | 8.89° C | 91% | 1041.2 hPa | 0 mm | - | 18 W/m² | - |
| 1777812242 | 8.33° C | 92% | 1041.3 hPa | 0 mm | - | 17 W/m² | - |
| 1777811940 | 8.33° C | 94% | 1041.3 hPa | 0 mm | - | 17 W/m² | - |
| 1777811639 | 8.33° C | 96% | 1041 hPa | 0 mm | - | 16 W/m² | - |
| 1777811334 | 7.78° C | 97% | 1041 hPa | 0 mm | - | 16 W/m² | - |
| 1777811031 | 7.78° C | 97% | 1040.8 hPa | 0 mm | - | 15 W/m² | - |
| 1777810728 | 7.78° C | 97% | 1040.9 hPa | 0 mm | - | 14 W/m² | - |
| 1777810425 | 7.78° C | 97% | 1040.7 hPa | 0 mm | - | 14 W/m² | - |
| 1777810120 | 7.22° C | 97% | 1040.8 hPa | 0 mm | - | 13 W/m² | - |
| 1777809818 | 7.22° C | 97% | 1041 hPa | 0 mm | - | 13 W/m² | - |
| 1777809516 | 7.22° C | 97% | 1040.8 hPa | 0 mm | - | 12 W/m² | - |
| 1777809213 | 7.22° C | 97% | 1040.7 hPa | 0 mm | - | 12 W/m² | - |
| 1777808911 | 7.22° C | 96% | 1040.6 hPa | 0 mm | - | 11 W/m² | - |
| 1777808608 | 7.22° C | 97% | 1040.6 hPa | 0 mm | - | 10 W/m² | - |
| 1777808305 | 6.67° C | 96% | 1040.4 hPa | 0 mm | - | 9 W/m² | - |
| 1777808004 | 6.67° C | 96% | 1040.3 hPa | 0 mm | - | 8 W/m² | - |
| 1777807700 | 6.67° C | 96% | 1040.3 hPa | 0 mm | - | 7 W/m² | - |
| 1777807399 | 6.67° C | 96% | 1040.2 hPa | 0 mm | - | 6 W/m² | - |
| 1777807098 | 7.22° C | 95% | 1040 hPa | 0 mm | - | 5 W/m² | - |
| 1777806797 | 6.67° C | 95% | 1039.9 hPa | 0 mm | - | 4 W/m² | - |
* Rain latest hour (hover to see other rain measurements)
** Current wind speed in m/s (hover to see current wind gust speed)